This is the latest recevied weather packets stored in our database for station/object I2HLY-3. If no packets are shown the sender has not sent any weather packets the latest 10 day(s).
| Time | Temp. | Humidity | Pressure | Rain* | Wind** | Luminosity | Snow |
|---|---|---|---|---|---|---|---|
| 1778068045 | 15.56° C | 88% | 1006.5 hPa | 0 mm | - | - | - |
| 1778067144 | 16.11° C | 86% | 1006.6 hPa | 0 mm | - | - | - |
| 1778066249 | 15.56° C | 89% | 1006.6 hPa | 0 mm | - | - | - |
| 1778065350 | 15.56° C | 88% | 1006.5 hPa | 0 mm | - | - | - |
| 1778064448 | 15.56° C | 88% | 1006.6 hPa | 0 mm | - | - | - |
| 1778063554 | 16.11° C | 88% | 1006.8 hPa | 0 mm | - | - | - |
| 1778062654 | 15.56° C | 89% | 1006.9 hPa | 1.02 mm | - | - | - |
| 1778061735 | 15.56° C | 91% | 1007 hPa | 1.02 mm | - | - | - |
| 1778060841 | 14.44° C | 93% | 1007.1 hPa | 1.02 mm | - | - | - |
| 1778059941 | 13.89° C | 93% | 1007 hPa | 1.02 mm | - | - | - |
| 1778059042 | 13.89° C | 94% | 1006.8 hPa | 0 mm | - | - | - |
| 1778058146 | 13.33° C | 94% | 1007.1 hPa | 0 mm | - | - | - |
| 1778057248 | 13.33° C | 93% | 1007.1 hPa | 0 mm | - | - | - |
| 1778056348 | 13.89° C | 92% | 1007 hPa | 0 mm | - | - | - |
| 1778055450 | 13.89° C | 91% | 1007 hPa | 0 mm | - | - | - |
| 1778054536 | 13.89° C | 93% | 1006.6 hPa | 0 mm | - | - | - |
| 1778053636 | 13.89° C | 93% | 1006.8 hPa | 0 mm | - | - | - |
| 1778052736 | 13.89° C | 93% | 1006.9 hPa | 0 mm | - | - | - |
| 1778051841 | 13.89° C | 94% | 1006.9 hPa | 0 mm | - | - | - |
| 1778050944 | 13.33° C | 94% | 1007.3 hPa | 0 mm | - | - | - |
| 1778050042 | 13.89° C | 94% | 1007.4 hPa | 0 mm | - | - | - |
| 1778049147 | 13.89° C | 94% | 1007.3 hPa | 0 mm | - | - | - |
| 1778048250 | 13.89° C | 94% | 1007.2 hPa | 0 mm | - | - | - |
| 1778047351 | 13.89° C | 94% | 1007.3 hPa | 0 mm | - | - | - |
| 1778046436 | 13.33° C | 94% | 1007 hPa | 0 mm | - | - | - |
* Rain latest hour (hover to see other rain measurements)
** Current wind speed in m/s (hover to see current wind gust speed)